Flag for Germany Weather past 2 weeks in Zerbst/Anhalt, Saxony-Anhalt, Germany

Now
38 °F

Overcast.


Feels Like: 35 °F
Forecast: 32 / 50 °F
Wind: 3 mph from Northwest

Location: Magdeburg

Current Time: Feb 28, 2015 at 2:15:40 AM

Latest Report: Feb 28, 2015 at 1:00 AM


Visibility: 16 mi

Pressure: 30.08 "Hg

Humidity: 89%

Dew point: 35 °F

Location of Zerbst/AnhaltLocation

Historic Weather in Zerbst/Anhalt — Graph

°F

Zerbst/Anhalt temperature yesterday

Maximum temperature yesterday: 45 °F (at 2:00 PM)
Minimum temperature yesterday: 30 °F (at 6:00 AM)
Average temperature yesterday: 37 °F

Past Weeks' High & Low Weather Summary

 TemperatureHumidityPressure
High49 °F (Feb 20, 4:00 PM)98% (Feb 18, 6:00 AM)30.76 "Hg (Feb 18, 6:00 AM)
Low25 °F (Feb 17, 8:00 AM)49% (Feb 26, 5:00 PM)29.38 "Hg (Feb 21, 11:00 AM)
Average37 °F81%30.01 "Hg
* Reported Feb 13 1:00 AM — Feb 28 1:00 AM, Zerbst/Anhalt, Weather by CustomWeather, © 2015

Note: Actual official high and low records may vary slightly from our data, if they occured in-between our weather recording intervals... More about our weather records

Advertising

Zerbst/Anhalt weather history for previous 24 hours

 ConditionsComfort  
Time TempWeatherWind HumidityBarometerVisibility
1:00 AM
Sat, Feb 28
38 °FOvercast.3 mph89%30.08 "Hg16 mi
12:00 AM38 °FOvercast.2 mph90%30.07 "Hg14 mi
11:00 PM
Fri, Feb 27
39 °FLight freezing rain. Overcast.2 mph92%30.06 "Hg6 mi
9:00 PM39 °FLight rain. Overcast.2 mph94%30.03 "Hg5 mi
8:00 PM39 °FLight rain. Overcast.2 mph95%30.01 "Hg2 mi
7:00 PM39 °FLight rain. Overcast.2 mph93%29.99 "Hg6 mi
6:00 PM40 °FLight rain. Overcast.2 mph89%29.97 "Hg9 mi
5:00 PM42 °FLight rain. Overcast.2 mph82%29.94 "Hg12 mi
3:00 PM45 °FOvercast.2 mph64%29.90 "Hg12 mi
2:00 PM45 °FOvercast.1 mph66%29.89 "Hg11 mi
1:00 PM43 °FOvercast.2 mph67%29.89 "Hg11 mi
12:00 PM41 °FOvercast.2 mph70%29.89 "Hg12 mi
11:00 AM39 °FPartly sunny.2 mph71%29.89 "Hg16 mi
10:00 AM37 °FScattered clouds.2 mph73%29.88 "Hg16 mi
9:00 AM35 °FScattered clouds.3 mph73%29.88 "Hg14 mi
8:00 AM31 °FPassing clouds.3 mph80%29.87 "Hg16 mi
7:00 AM30 °FPassing clouds.2 mph83%29.87 "Hg16 mi
6:00 AM30 °FPassing clouds.3 mph83%29.86 "Hg10 mi
5:00 AM31 °FPassing clouds.2 mph83%29.87 "Hg9 mi
4:00 AM32 °FPassing clouds.2 mph80%29.88 "Hg11 mi
3:00 AM33 °FPassing clouds.2 mph78%29.90 "Hg11 mi
2:00 AM33 °FPassing clouds.2 mph76%29.92 "Hg11 mi
Weather by CustomWeather, © 2015

See weather overviewHow to use our weather pages